STARLINK-36651

Last updated on Sun Mar 15 2026 00:02:07 GMT+0000 (Coordinated Universal Time)

1 67840U 26033V 26073.58335648 -.01940507 00000+0 -21306-1 0 9999 2 67840 42.9990 241.6350 0001362 278.6530 199.4240 15.65508879 5451
UTC large
Height (km)
Speed (km/s)
/
Latitude / Longitude
Inclination (degrees)
Orbital Period (minutes)
Azimuth
Elevation
Range (km)
Doppler Factor

Next 0 passes for location: London (51.5072 / 0.1276)

Sorry there are no passes over London.